• In Österreich
  • Länderverzeichnis
  • Für 7 Tage
  • Wassertemperatur
  • Satellitenkarten
  • Wetterkarte
  • News
  • Widgets
  • user-avatar
    Anmelden

    Stündliche Wetter Saurimo

    Heute, 18 Dezember, Montag

    Zeit Temperatur Niederschläge Wind Luftdruck Luftfeuchtigkeit
    00:00 +20°C° 0 mm 1 m/S 670 mmHg 94%
    01:00 +20°C° 0 mm 1 m/S 669 mmHg 94%
    02:00 +20°C° 0 mm 1 m/S 669 mmHg 94%
    03:00 +20°C° 0 mm 1 m/S 669 mmHg 94%
    04:00 +20°C° 0 mm 1 m/S 669 mmHg 94%
    05:00 +20°C° 0,1 mm 1 m/S 670 mmHg 92%
    06:00 +21°C° 0,1 mm 1 m/S 670 mmHg 91%
    07:00 +20°C° 0 mm 0 m/S 671 mmHg 89%
    08:00 +21°C° 0,6 mm 0 m/S 671 mmHg 89%
    09:00 +23°C° 0,6 mm 1 m/S 671 mmHg 89%
    10:00 +23°C° 0,6 mm 1 m/S 671 mmHg 90%
    11:00 +24°C° 0,4 mm 1 m/S 670 mmHg 89%
    12:00 +24°C° 0,4 mm 1 m/S 669 mmHg 88%
    13:00 +24°C° 0 mm 1 m/S 669 mmHg 85%
    14:00 +24°C° 0,4 mm 1 m/S 668 mmHg 88%
    15:00 +23°C° 0,4 mm 1 m/S 668 mmHg 90%
    16:00 +23°C° 0,4 mm 1 m/S 667 mmHg 93%
    17:00 +22°C° 0,2 mm 1 m/S 668 mmHg 93%
    18:00 +21°C° 0,2 mm 1 m/S 668 mmHg 94%
    19:00 +21°C° 0,2 mm 1 m/S 668 mmHg 95%
    20:00 +20°C° 0,1 mm 1 m/S 669 mmHg 95%
    21:00 +20°C° 0,1 mm 1 m/S 669 mmHg 95%
    22:00 +20°C° 0,1 mm 1 m/S 669 mmHg 95%
    23:00 +19°C° 0,1 mm 1 m/S 669 mmHg 95%

    Morgen, 19 Dezember, Dienstag

    Zeit Temperatur Niederschläge Wind Luftdruck Luftfeuchtigkeit
    00:00 +19°C° 0,1 mm 1 m/S 669 mmHg 95%
    01:00 +19°C° 0,1 mm 1 m/S 668 mmHg 95%
    02:00 +19°C° 0 mm 1 m/S 668 mmHg 95%
    03:00 +19°C° 0 mm 1 m/S 668 mmHg 95%
    04:00 +19°C° 0 mm 1 m/S 668 mmHg 96%
    05:00 +19°C° 0,2 mm 1 m/S 669 mmHg 95%
    06:00 +20°C° 0,2 mm 1 m/S 669 mmHg 95%
    07:00 +20°C° 0,2 mm 1 m/S 670 mmHg 95%
    08:00 +21°C° 0,6 mm 1 m/S 670 mmHg 94%
    09:00 +22°C° 0,6 mm 1 m/S 670 mmHg 93%
    10:00 +23°C° 0,6 mm 1 m/S 670 mmHg 92%
    11:00 +23°C° 1 mm 1 m/S 670 mmHg 91%
    12:00 +24°C° 1 mm 2 m/S 670 mmHg 91%
    13:00 +24°C° 1 mm 2 m/S 670 mmHg 90%
    14:00 +24°C° 0,7 mm 2 m/S 669 mmHg 91%
    15:00 +24°C° 0,7 mm 2 m/S 669 mmHg 92%
    16:00 +23°C° 0,7 mm 2 m/S 668 mmHg 93%
    17:00 +22°C° 0,4 mm 1 m/S 669 mmHg 94%
    18:00 +22°C° 0,4 mm 1 m/S 669 mmHg 96%
    19:00 +21°C° 0,4 mm 1 m/S 669 mmHg 97%
    20:00 +21°C° 0,1 mm 1 m/S 669 mmHg 97%
    21:00 +20°C° 0,1 mm 1 m/S 670 mmHg 97%
    22:00 +20°C° 0,1 mm 1 m/S 670 mmHg 97%
    23:00 +20°C° 0,1 mm 1 m/S 670 mmHg 97%

    übermorgen, 20 Dezember, Mittwoch

    Zeit Temperatur Niederschläge Wind Luftdruck Luftfeuchtigkeit
    00:00 +20°C° 0,1 mm 1 m/S 669 mmHg 97%
    01:00 +20°C° 0,1 mm 1 m/S 669 mmHg 97%
    02:00 +20°C° 0 mm 1 m/S 669 mmHg 97%
    03:00 +20°C° 0 mm 1 m/S 669 mmHg 97%
    04:00 +20°C° 0 mm 1 m/S 669 mmHg 97%
    05:00 +20°C° 0 mm 1 m/S 669 mmHg 96%
    06:00 +21°C° 0 mm 1 m/S 670 mmHg 95%
    07:00 +21°C° 0 mm 1 m/S 670 mmHg 94%
    08:00 +23°C° 0 mm 1 m/S 671 mmHg 86%
    09:00 +24°C° 0 mm 2 m/S 671 mmHg 79%
    10:00 +25°C° 0 mm 2 m/S 671 mmHg 72%
    11:00 +26°C° 0 mm 2 m/S 671 mmHg 68%
    12:00 +27°C° 0 mm 3 m/S 671 mmHg 65%
    13:00 +27°C° 0 mm 3 m/S 670 mmHg 62%
    14:00 +27°C° 0,3 mm 2 m/S 670 mmHg 69%
    15:00 +26°C° 0,3 mm 2 m/S 670 mmHg 76%
    16:00 +26°C° 0,3 mm 1 m/S 669 mmHg 83%
    17:00 +24°C° 0,5 mm 1 m/S 669 mmHg 86%
    18:00 +23°C° 0,5 mm 1 m/S 670 mmHg 89%
    19:00 +21°C° 0,5 mm 1 m/S 670 mmHg 93%
    20:00 +21°C° 0,3 mm 1 m/S 670 mmHg 94%
    21:00 +21°C° 0,3 mm 1 m/S 671 mmHg 95%
    22:00 +18°C° 0,3 mm 0 m/S 671 mmHg 96%
    23:00 +18°C° 0,8 mm 0 m/S 671 mmHg 96%

    21 Dezember, Donnerstag

    Zeit Temperatur Niederschläge Wind Luftdruck Luftfeuchtigkeit
    00:00 +20°C° 0,8 mm 1 m/S 670 mmHg 97%
    01:00 +20°C° 0,8 mm 1 m/S 670 mmHg 97%
    02:00 +20°C° 0,1 mm 1 m/S 670 mmHg 97%
    03:00 +19°C° 0,1 mm 1 m/S 669 mmHg 97%
    04:00 +19°C° 0,1 mm 1 m/S 669 mmHg 96%
    05:00 +18°C° 0,1 mm 0 m/S 670 mmHg 95%
    06:00 +18°C° 0,1 mm 0 m/S 671 mmHg 94%
    07:00 +19°C° 0,1 mm 0 m/S 671 mmHg 93%
    08:00 +20°C° 0,6 mm 0 m/S 672 mmHg 92%
    09:00 +21°C° 0,6 mm 0 m/S 672 mmHg 90%
    10:00 +22°C° 0,6 mm 0 m/S 672 mmHg 88%
    11:00 +24°C° 0,5 mm 1 m/S 671 mmHg 84%
    12:00 +25°C° 0,5 mm 1 m/S 671 mmHg 79%
    13:00 +26°C° 0,5 mm 2 m/S 670 mmHg 75%
    14:00 +26°C° 0,3 mm 2 m/S 670 mmHg 74%
    15:00 +26°C° 0,3 mm 2 m/S 669 mmHg 74%
    16:00 +27°C° 0,3 mm 2 m/S 669 mmHg 73%
    17:00 +25°C° 0,6 mm 1 m/S 669 mmHg 80%
    18:00 +23°C° 0,6 mm 1 m/S 669 mmHg 86%
    19:00 +19°C° 0,6 mm 0 m/S 669 mmHg 92%
    20:00 +21°C° 0,6 mm 1 m/S 670 mmHg 93%
    21:00 +21°C° 0,6 mm 1 m/S 670 mmHg 94%
    22:00 +20°C° 0,6 mm 1 m/S 671 mmHg 94%
    23:00 +20°C° 0,2 mm 1 m/S 670 mmHg 95%

    22 Dezember, Freitag

    Zeit Temperatur Niederschläge Wind Luftdruck Luftfeuchtigkeit
    00:00 +20°C° 0,2 mm 1 m/S 670 mmHg 95%
    01:00 +20°C° 0,2 mm 1 m/S 670 mmHg 96%
    02:00 +20°C° 0 mm 1 m/S 670 mmHg 96%
    03:00 +19°C° 0 mm 1 m/S 670 mmHg 96%
    04:00 +19°C° 0 mm 1 m/S 670 mmHg 96%
    05:00 +18°C° 0 mm 0 m/S 670 mmHg 95%
    06:00 +19°C° 0 mm 0 m/S 671 mmHg 94%
    07:00 +19°C° 0 mm 0 m/S 672 mmHg 93%
    08:00 +21°C° 0,7 mm 0 m/S 672 mmHg 89%
    09:00 +23°C° 0,7 mm 0 m/S 672 mmHg 85%
    10:00 +25°C° 0,7 mm 0 m/S 672 mmHg 80%
    11:00 +27°C° 1,1 mm 1 m/S 672 mmHg 77%
    12:00 +27°C° 1,1 mm 1 m/S 671 mmHg 74%
    13:00 +27°C° 1,1 mm 1 m/S 670 mmHg 71%
    14:00 +27°C° 0,3 mm 1 m/S 670 mmHg 72%
    15:00 +27°C° 0,3 mm 1 m/S 669 mmHg 73%
    16:00 +27°C° 0,3 mm 1 m/S 669 mmHg 75%
    17:00 +25°C° 1,4 mm 1 m/S 669 mmHg 80%
    18:00 +23°C° 1,4 mm 1 m/S 669 mmHg 86%
    19:00 +20°C° 1,4 mm 0 m/S 669 mmHg 92%
    20:00 +22°C° 0,5 mm 1 m/S 670 mmHg 92%
    21:00 +21°C° 0,5 mm 1 m/S 670 mmHg 93%
    22:00 +21°C° 0,5 mm 1 m/S 670 mmHg 94%
    23:00 +21°C° 0 mm 1 m/S 669 mmHg 95%

    23 Dezember, Samstag

    Zeit Temperatur Niederschläge Wind Luftdruck Luftfeuchtigkeit
    00:00 +20°C° 0 mm 1 m/S 669 mmHg 95%
    01:00 +20°C° 0 mm 1 m/S 668 mmHg 96%
    02:00 +20°C° 0 mm 1 m/S 668 mmHg 95%
    03:00 +20°C° 0 mm 1 m/S 668 mmHg 95%
    04:00 +20°C° 0 mm 1 m/S 668 mmHg 95%
    05:00 +20°C° 0 mm 1 m/S 669 mmHg 94%
    06:00 +21°C° 0 mm 1 m/S 669 mmHg 92%
    07:00 +21°C° 0 mm 1 m/S 670 mmHg 91%
    08:00 +23°C° 0 mm 1 m/S 670 mmHg 82%
    09:00 +25°C° 0 mm 1 m/S 670 mmHg 74%
    10:00 +27°C° 0 mm 2 m/S 671 mmHg 65%
    11:00 +28°C° 0,3 mm 2 m/S 670 mmHg 64%
    12:00 +29°C° 0,3 mm 2 m/S 669 mmHg 63%
    13:00 +29°C° 0,3 mm 3 m/S 669 mmHg 61%
    14:00 +29°C° 0,7 mm 2 m/S 669 mmHg 68%
    15:00 +28°C° 0,7 mm 2 m/S 668 mmHg 74%
    16:00 +27°C° 0,7 mm 2 m/S 668 mmHg 80%
    17:00 +26°C° 1,5 mm 1 m/S 668 mmHg 84%
    18:00 +24°C° 1,5 mm 1 m/S 668 mmHg 87%
    19:00 +22°C° 1,5 mm 1 m/S 669 mmHg 91%
    20:00 +22°C° 0,1 mm 1 m/S 669 mmHg 92%
    21:00 +21°C° 0,1 mm 1 m/S 669 mmHg 93%
    22:00 +21°C° 0,1 mm 1 m/S 669 mmHg 94%
    23:00 +21°C° 0 mm 1 m/S 669 mmHg 94%
    Mehr zeigen